Temp
-13 -13 -13 -13 -13 -13 -13 -13 -13 -13 -13 -13 -13 -13 -13 -13 -13 -13 -13 -13 -12 -12 -13 -13 -13 -12 -12 -13 -13 -13 -13 -13 -13 -13 -12 -12 -12 -12 -12 -12 -12 -12 -12 -12 -12 -12 -11 -11 -11 -11 -11 -12
-13 -13 -13 -13 -13 -13 -13 -13 -13 -13 -13 -13 -13 -13 -13 -13 -13 -13 -13 -13 -13 -12 -12 -13 -13 -12 -12 -12 -13 -13 -13 -13 -13 -13 -13 -13 -13 -13 -12 -12 -12 -12 -12 -12 -12 -12 -12 -11 -11 -11 -12 -12
-14 -13 -13 -13 -13 -13 -13 -13 -13 -13 -13 -14 -14 -13 -13 -13 -13 -13 -13 -13 -13 -13 -12 -12 -12 -12 -12 -12 -12 -13 -13 -13 -13 -13 -13 -13 -13 -13 -13 -13 -12 -12 -12 -12 -12 -12 -12 -12 -12 -11 -12 -12
-14 -14 -14 -14 -14 -13 -13 -13 -13 -14 -14 -14 -14 -14 -13 -13 -13 -13 -13 -13 -13 -13 -13 -13 -13 -12 -12 -13 -12 -12 -13 -13 -13 -13 -13 -13 -13 -13 -13 -13 -12 -12 -12 -12 -12 -12 -12 -12 -12 -12 -12 -12
-14 -14 -14 -14 -14 -14 -14 -14 -14 -14 -14 -14 -14 -14 -14 -13 -13 -13 -13 -13 -13 -13 -13 -13 -13 -13 -13 -13 -13 -12 -12 -13 -13 -13 -13 -13 -13 -13 -12 -12 -12 -12 -12 -12 -12 -12 -12 -12 -12 -11 -12 -12
-14 -14 -14 -14 -14 -14 -14 -14 -14 -14 -14 -15 -14 -14 -14 -14 -14 -14 -14 -13 -13 -13 -13 -13 -13 -13 -13 -13 -13 -13 -13 -12 -13 -13 -13 -13 -13 -13 -12 -12 -12 -12 -12 -12 -12 -12 -12 -12 -12 -11 -12 -12
-14 -14 -15 -14 -14 -14 -14 -14 -14 -14 -14 -15 -15 -15 -14 -14 -14 -14 -14 -14 -13 -13 -13 -13 -13 -13 -13 -13 -13 -13 -13 -13 -13 -13 -13 -13 -13 -13 -13 -13 -13 -13 -13 -12 -12 -12 -12 -12 -12 -12 -12 -12
-15 -15 -15 -15 -14 -14 -15 -15 -15 -14 -14 -15 -15 -15 -15 -14 -14 -14 -14 -14 -14 -14 -13 -13 -13 -13 -13 -14 -13 -13 -13 -13 -13 -13 -13 -13 -13 -13 -13 -13 -13 -13 -13 -13 -13 -12 -12 -12 -12 -12 -12 -12
-15 -15 -15 -15 -15 -15 -15 -15 -15 -14 -15 -15 -15 -15 -15 -14 -14 -14 -14 -14 -14 -14 -14 -13 -13 -13 -14 -14 -14 -14 -14 -14 -14 -13 -13 -14 -13 -14 -14 -14 -13 -13 -13 -13 -13 -13 -13 -12 -12 -12 -12 -12
-15 -15 -15 -15 -15 -15 -15 -15 -15 -15 -15 -15 -15 -15 -15 -15 -15 -14 -14 -14 -14 -14 -14 -14 -14 -14 -14 -14 -14 -14 -14 -14 -14 -14 -14 -14 -14 -14 -14 -14 -14 -13 -13 -13 -13 -13 -13 -13 -13 -12 -12 -13
-16 -15 -15 -15 -15 -15 -15 -14 -14 -14 -14 -15 -15 -15 -15 -15 -15 -15 -14 -14 -14 -14 -14 -14 -14 -14 -14 -14 -14 -14 -14 -14 -14 -14 -14 -14 -14 -14 -15 -15 -14 -14 -14 -14 -14 -14 -14 -13 -13 -13 -13 -13
-16 -16 -16 -16 -15 -15 -15 -15 -14 -14 -15 -15 -15 -15 -15 -15 -15 -15 -15 -14 -14 -14 -14 -15 -15 -15 -14 -14 -14 -14 -14 -14 -14 -14 -14 -14 -14 -14 -14 -15 -15 -14 -14 -14 -14 -14 -14 -14 -14 -14 -13 -13
-16 -16 -16 -16 -16 -16 -16 -15 -15 -15 -15 -15 -15 -15 -15 -15 -15 -15 -15 -15 -14 -14 -15 -15 -15 -15 -15 -15 -15 -15 -15 -15 -15 -15 -14 -14 -14 -14 -14 -14 -15 -15 -14 -14 -14 -14 -14 -14 -14 -14 -14 -13
-16 -16 -16 -16 -16 -16 -16 -16 -16 -15 -15 -15 -16 -15 -15 -15 -16 -16 -16 -15 -15 -15 -15 -15 -15 -15 -15 -15 -15 -15 -15 -15 -15 -15 -15 -15 -14 -14 -14 -15 -15 -14 -15 -15 -14 -14 -14 -14 -14 -14 -14 -14
-17 -17 -16 -16 -16 -16 -16 -16 -16 -16 -16 -16 -16 -16 -16 -16 -16 -16 -16 -16 -16 -15 -15 -15 -15 -15 -15 -15 -16 -16 -15 -15 -15 -15 -15 -15 -15 -15 -15 -15 -15 -15 -15 -15 -14 -14 -14 -14 -14 -14 -14 -14
-17 -17 -17 -17 -16 -16 -16 -16 -16 -16 -16 -16 -16 -16 -16 -16 -16 -16 -16 -16 -16 -16 -15 -15 -15 -16 -16 -16 -16 -16 -15 -16 -16 -16 -15 -15 -15 -15 -15 -15 -15 -15 -15 -14 -14 -14 -14 -14 -14 -14 -14 -14
-17 -17 -17 -17 -17 -17 -16 -16 -16 -16 -17 -17 -17 -16 -16 -16 -16 -16 -16 -16 -17 -17 -16 -16 -16 -16 -16 -16 -16 -15 -15 -15 -16 -16 -16 -16 -16 -15 -15 -15 -15 -15 -15 -14 -14 -14 -14 -14 -14 -14 -14 -14
-17 -17 -17 -17 -17 -17 -17 -17 -16 -16 -17 -17 -17 -17 -17 -17 -17 -17 -17 -17 -17 -17 -17 -17 -17 -17 -17 -17 -16 -16 -16 -15 -15 -16 -16 -16 -16 -16 -16 -15 -15 -15 -15 -14 -14 -14 -14 -14 -14 -14 -14 -14
-17 -17 -17 -17 -17 -17 -17 -17 -17 -17 -17 -17 -17 -17 -17 -17 -17 -17 -17 -17 -18 -18 -18 -17 -17 -17 -17 -17 -17 -17 -17 -16 -16 -16 -16 -16 -16 -16 -16 -15 -15 -15 -15 -15 -15 -15 -15 -15 -15 -14 -14 -14
-17 -17 -17 -17 -17 -17 -17 -17 -17 -17 -17 -17 -17 -18 -18 -17 -18 -18 -18 -18 -18 -18 -18 -18 -18 -17 -17 -17 -18 -18 -17 -17 -17 -17 -17 -17 -16 -16 -16 -16 -15 -15 -15 -15 -15 -15 -15 -15 -15 -15 -15 -15
-17 -17 -17 -17 -17 -17 -17 -17 -17 -17 -17 -18 -18 -18 -18 -18 -18 -18 -18 -18 -18 -18 -18 -18 -18 -18 -18 -18 -18 -18 -18 -18 -18 -18 -17 -17 -17 -17 -16 -16 -16 -16 -16 -16 -16 -16 -16 -16 -16 -16 -16 -16
-18 -18 -18 -18 -17 -17 -18 -18 -18 -18 -18 -18 -18 -18 -18 -18 -18 -18 -18 -19 -18 -18 -18 -18 -18 -19 -18 -18 -18 -18 -18 -18 -18 -18 -18 -18 -17 -17 -17 -17 -16 -16 -16 -16 -16 -16 -16 -16 -16 -16 -16 -16
-18 -18 -18 -18 -18 -18 -18 -18 -18 -18 -18 -18 -18 -18 -18 -18 -18 -18 -19 -19 -19 -18 -18 -18 -18 -19 -19 -19 -19 -18 -18 -19 -19 -19 -18 -18 -17 -17 -17 -17 -17 -17 -17 -17 -17 -17 -17 -17 -17 -16 -16 -16
-18 -18 -18 -18 -18 -18 -18 -18 -18 -18 -18 -18 -18 -18 -18 -18 -18 -18 -19 -19 -19 -19 -19 -18 -18 -19 -19 -19 -19 -19 -19 -19 -19 -19 -19 -18 -18 -18 -18 -18 -17 -17 -17 -17 -17 -17 -17 -17 -17 -17 -17 -16
-19 -19 -19 -19 -19 -19 -18 -18 -18 -18 -18 -18 -18 -19 -19 -19 -19 -19 -18 -19 -19 -19 -19 -19 -19 -19 -19 -19 -19 -19 -19 -19 -19 -19 -19 -19 -18 -18 -18 -18 -18 -17 -17 -17 -18 -17 -17 -17 -17 -17 -16 -17
-19 -19 -19 -19 -19 -19 -19 -19 -19 -19 -19 -18 -19 -19 -19 -19 -19 -19 -19 -19 -19 -19 -19 -19 -19 -19 -19 -19 -19 -19 -19 -19 -19 -19 -19 -19 -19 -19 -19 -18 -18 -18 -18 -18 -18 -18 -18 -17 -17 -17 -17 -17
-19 -19 -19 -19 -19 -19 -19 -19 -19 -19 -19 -19 -19 -19 -19 -19 -19 -19 -19 -19 -19 -19 -19 -19 -19 -19 -20 -19 -20 -20 -20 -20 -19 -19 -19 -19 -19 -19 -19 -19 -18 -18 -18 -18 -18 -18 -18 -18 -18 -17 -17 -17
-19 -19 -19 -19 -19 -19 -19 -19 -19 -19 -19 -19 -19 -19 -19 -19 -19 -19 -19 -19 -19 -19 -19 -19 -19 -19 -19 -19 -19 -20 -20 -20 -20 -20 -20 -20 -20 -19 -19 -19 -19 -19 -19 -19 -19 -18 -18 -18 -18 -18 -18 -18
-20 -20 -20 -20 -20 -20 -20 -20 -20 -20 -19 -19 -19 -19 -19 -19 -19 -19 -19 -19 -19 -19 -19 -20 -20 -20 -20 -20 -20 -20 -20 -20 -20 -20 -20 -20 -19 -20 -20 -20 -20 -20 -19 -19 -19 -19 -19 -19 -18 -18 -18 -19
-20 -20 -20 -20 -20 -20 -20 -20 -20 -20 -20 -20 -19 -20 -20 -20 -20 -20 -20 -20 -20 -20 -20 -20 -20 -20 -20 -20 -20 -20 -20 -20 -20 -20 -20 -20 -20 -20 -19 -20 -20 -20 -20 -20 -19 -19 -19 -19 -19 -19 -19 -19
-20 -20 -20 -20 -20 -20 -20 -20 -20 -20 -20 -20 -20 -20 -20 -20 -20 -20 -20 -20 -20 -20 -20 -20 -20 -20 -20 -20 -20 -20 -20 -20 -21 -21 -21 -21 -21 -20 -19 -19 -19 -20 -20 -20 -19 -19 -20 -19 -19 -19 -19 -19
Height
5755 5756 5756 5756 5754 5753 5754 5754 5753 5754 5755 5757 5757 5757 5758 5758 5758 5759 5759 5760 5762 5764 5765 5767 5768 5769 5769 5769 5770 5770 5771 5773 5774 5775 5777 5778 5779 5780 5782 5783 5785 5786 5787 5789 5792 5794 5796 5798 5800 5802 5804 5806
5751 5752 5752 5752 5752 5750 5750 5750 5750 5750 5752 5753 5754 5754 5754 5754 5754 5755 5756 5756 5757 5759 5760 5761 5762 5764 5765 5766 5767 5766 5767 5768 5769 5771 5773 5774 5774 5776 5777 5778 5780 5781 5783 5785 5787 5789 5791 5793 5795 5798 5800 5801
5746 5748 5747 5748 5748 5746 5747 5746 5746 5747 5748 5750 5751 5751 5751 5751 5751 5752 5752 5753 5753 5754 5755 5755 5757 5759 5760 5761 5762 5762 5762 5763 5764 5766 5768 5769 5770 5771 5772 5773 5775 5777 5779 5781 5783 5785 5786 5787 5790 5793 5795 5796
5742 5743 5742 5743 5743 5742 5743 5742 5742 5744 5745 5746 5747 5748 5748 5748 5748 5748 5749 5749 5750 5750 5750 5751 5752 5753 5754 5755 5756 5757 5757 5758 5759 5761 5763 5764 5765 5766 5767 5768 5770 5771 5774 5776 5778 5779 5780 5782 5785 5788 5790 5790
5738 5737 5738 5738 5738 5739 5738 5739 5739 5740 5742 5742 5742 5743 5744 5744 5744 5745 5744 5745 5746 5746 5746 5746 5747 5748 5749 5749 5750 5751 5752 5752 5754 5755 5757 5759 5760 5761 5762 5763 5765 5766 5768 5769 5771 5772 5773 5775 5779 5782 5784 5785
5734 5733 5734 5733 5734 5735 5734 5734 5735 5737 5738 5738 5738 5739 5739 5739 5740 5739 5740 5740 5741 5741 5742 5742 5743 5743 5743 5744 5744 5745 5746 5746 5747 5749 5751 5752 5754 5755 5756 5758 5759 5760 5762 5763 5764 5765 5767 5769 5772 5776 5777 5778
5731 5730 5730 5730 5730 5730 5731 5731 5731 5733 5735 5733 5733 5734 5735 5735 5735 5735 5735 5736 5736 5736 5737 5738 5739 5739 5739 5739 5739 5739 5740 5740 5741 5743 5744 5745 5747 5749 5750 5752 5753 5754 5755 5756 5756 5757 5759 5761 5764 5768 5769 5770
5727 5726 5726 5726 5725 5725 5727 5728 5728 5729 5730 5729 5729 5729 5730 5730 5730 5730 5730 5731 5732 5732 5732 5733 5734 5735 5735 5735 5735 5735 5735 5735 5736 5738 5738 5739 5741 5742 5744 5746 5748 5749 5750 5750 5750 5751 5752 5754 5757 5760 5761 5763
5723 5722 5722 5722 5722 5722 5722 5723 5724 5724 5725 5724 5724 5725 5725 5726 5726 5726 5726 5727 5727 5728 5728 5729 5729 5730 5729 5730 5730 5731 5731 5731 5732 5733 5733 5734 5735 5736 5738 5741 5743 5744 5745 5745 5745 5747 5748 5749 5752 5755 5756 5757
5720 5719 5720 5719 5718 5719 5719 5719 5720 5720 5720 5720 5720 5721 5721 5721 5720 5720 5721 5723 5724 5724 5724 5724 5725 5725 5725 5724 5725 5726 5726 5726 5727 5728 5728 5729 5730 5731 5733 5735 5737 5739 5740 5740 5741 5743 5746 5747 5749 5750 5752 5753
5715 5715 5716 5715 5715 5715 5716 5715 5715 5716 5716 5715 5716 5716 5717 5716 5715 5714 5715 5718 5720 5721 5720 5720 5720 5721 5720 5720 5720 5721 5721 5722 5722 5723 5724 5724 5725 5726 5727 5729 5732 5734 5735 5736 5737 5739 5743 5745 5745 5746 5749 5749
5710 5710 5711 5711 5711 5711 5712 5711 5710 5711 5711 5710 5711 5712 5712 5711 5711 5710 5710 5712 5714 5716 5718 5717 5717 5717 5717 5717 5717 5717 5718 5718 5719 5719 5719 5720 5720 5721 5722 5724 5726 5728 5730 5731 5733 5735 5738 5740 5741 5743 5745 5746
5706 5706 5706 5707 5706 5706 5707 5707 5706 5706 5705 5705 5706 5707 5707 5706 5706 5706 5705 5706 5708 5710 5713 5713 5713 5713 5713 5713 5713 5714 5714 5715 5716 5716 5716 5716 5716 5717 5718 5719 5720 5722 5724 5726 5728 5730 5732 5734 5736 5737 5740 5742
5702 5702 5702 5702 5702 5702 5702 5701 5701 5701 5701 5701 5701 5701 5702 5701 5701 5701 5700 5701 5702 5704 5706 5708 5709 5709 5708 5709 5709 5709 5710 5711 5711 5712 5713 5713 5713 5713 5713 5714 5715 5717 5719 5721 5723 5725 5727 5728 5730 5732 5734 5736
5697 5697 5697 5698 5698 5698 5697 5697 5697 5697 5696 5696 5697 5697 5697 5697 5697 5697 5696 5697 5697 5698 5699 5701 5702 5703 5703 5703 5703 5704 5705 5706 5706 5707 5708 5709 5710 5710 5710 5711 5712 5713 5714 5716 5718 5720 5721 5723 5724 5726 5728 5730
5693 5693 5693 5693 5693 5693 5693 5692 5693 5693 5692 5692 5692 5691 5692 5692 5693 5693 5692 5692 5693 5694 5694 5695 5696 5697 5697 5698 5698 5698 5699 5700 5701 5702 5703 5704 5705 5706 5707 5707 5708 5709 5710 5711 5713 5715 5716 5717 5718 5720 5722 5724
5688 5688 5688 5688 5688 5688 5688 5688 5689 5688 5687 5687 5686 5685 5686 5686 5687 5688 5687 5687 5688 5688 5689 5690 5690 5691 5692 5692 5692 5693 5694 5694 5695 5696 5698 5699 5699 5700 5701 5703 5704 5705 5706 5707 5709 5711 5712 5713 5714 5715 5717 5718
5682 5682 5682 5682 5682 5683 5683 5683 5684 5683 5682 5682 5681 5680 5681 5681 5681 5682 5682 5682 5682 5683 5684 5685 5685 5685 5686 5686 5686 5687 5688 5689 5689 5690 5692 5693 5694 5695 5696 5697 5699 5699 5701 5702 5704 5705 5706 5707 5708 5710 5711 5712
5677 5677 5677 5677 5676 5677 5678 5678 5678 5677 5677 5677 5677 5676 5675 5675 5676 5676 5677 5677 5677 5677 5679 5681 5681 5680 5680 5681 5681 5682 5683 5683 5684 5684 5685 5686 5688 5689 5690 5692 5693 5694 5695 5696 5697 5699 5700 5701 5702 5704 5705 5706
5671 5671 5672 5671 5671 5671 5671 5671 5671 5671 5671 5672 5673 5673 5671 5671 5672 5671 5671 5671 5672 5672 5674 5675 5676 5676 5676 5676 5676 5677 5678 5678 5679 5679 5680 5681 5682 5683 5684 5686 5687 5688 5689 5690 5691 5693 5694 5695 5696 5698 5699 5700
5667 5666 5666 5666 5665 5666 5666 5665 5665 5666 5666 5667 5667 5667 5667 5667 5667 5667 5666 5666 5667 5667 5668 5669 5670 5670 5671 5671 5672 5672 5673 5674 5674 5674 5674 5675 5676 5678 5678 5679 5681 5682 5683 5684 5686 5687 5688 5689 5690 5692 5693 5695
5661 5661 5660 5660 5660 5660 5660 5660 5660 5660 5660 5660 5660 5660 5661 5661 5661 5662 5662 5662 5662 5662 5663 5664 5664 5665 5665 5666 5666 5666 5667 5668 5669 5669 5669 5670 5671 5672 5673 5674 5675 5676 5677 5678 5680 5681 5682 5683 5685 5686 5688 5690
5655 5655 5655 5654 5654 5654 5654 5653 5653 5654 5654 5654 5653 5654 5654 5654 5653 5654 5655 5655 5656 5657 5657 5658 5658 5659 5659 5660 5660 5660 5661 5662 5663 5663 5663 5664 5665 5667 5668 5668 5669 5671 5671 5672 5674 5675 5677 5678 5679 5681 5682 5684
5649 5648 5649 5648 5647 5648 5648 5647 5647 5647 5646 5646 5647 5647 5647 5647 5647 5647 5647 5648 5649 5650 5650 5651 5651 5652 5653 5653 5653 5654 5655 5656 5656 5656 5656 5658 5659 5661 5662 5662 5663 5665 5666 5666 5667 5669 5670 5671 5673 5675 5677 5679
5641 5641 5641 5641 5641 5640 5641 5641 5640 5639 5639 5639 5640 5640 5640 5640 5640 5640 5640 5641 5642 5642 5642 5643 5643 5645 5646 5645 5645 5646 5648 5649 5649 5650 5651 5652 5653 5654 5655 5655 5656 5658 5660 5660 5661 5662 5663 5664 5666 5669 5671 5672
5634 5634 5633 5633 5633 5633 5633 5633 5632 5631 5631 5632 5633 5633 5633 5634 5633 5633 5633 5634 5634 5634 5635 5635 5636 5637 5638 5638 5639 5639 5640 5642 5643 5643 5644 5645 5646 5647 5647 5648 5649 5652 5653 5653 5654 5654 5656 5659 5661 5663 5664 5666
5626 5626 5626 5625 5625 5625 5625 5625 5625 5624 5623 5624 5625 5625 5626 5626 5626 5625 5626 5627 5627 5627 5627 5628 5628 5629 5629 5630 5632 5632 5631 5633 5636 5637 5637 5638 5639 5640 5641 5641 5643 5645 5645 5646 5647 5648 5650 5653 5654 5656 5659 5661
5617 5617 5617 5617 5616 5616 5616 5617 5617 5616 5616 5616 5617 5617 5618 5618 5618 5618 5619 5619 5619 5619 5620 5620 5621 5622 5622 5622 5624 5625 5624 5624 5626 5629 5630 5630 5631 5633 5634 5635 5636 5636 5637 5639 5641 5642 5644 5645 5646 5650 5654 5654
5609 5609 5608 5608 5608 5608 5607 5608 5608 5608 5608 5608 5608 5608 5609 5610 5610 5610 5611 5611 5611 5612 5612 5613 5614 5614 5615 5616 5616 5616 5617 5618 5618 5619 5621 5622 5624 5626 5627 5627 5628 5629 5630 5633 5634 5635 5637 5638 5641 5644 5645 5644
5600 5600 5599 5599 5599 5599 5598 5598 5598 5599 5599 5600 5600 5600 5600 5600 5601 5602 5602 5603 5604 5604 5604 5605 5605 5606 5608 5608 5608 5609 5610 5610 5611 5612 5612 5613 5615 5617 5618 5619 5621 5623 5624 5625 5627 5629 5630 5631 5634 5636 5636 5637
5591 5590 5590 5589 5589 5589 5589 5589 5588 5588 5589 5590 5591 5591 5591 5591 5592 5593 5593 5594 5595 5595 5596 5596 5597 5598 5599 5600 5601 5601 5601 5602 5604 5605 5606 5605 5605 5606 5608 5610 5613 5616 5616 5617 5620 5622 5623 5623 5626 5628 5628 5631
Wind_Speed
36 35 35 38 41 40 39 40 38 36 36 35 35 36 38 40 40 40 42 44 42 41 41 41 41 40 39 38 38 39 41 44 48 52 54 55 56 55 53 53 55 54 53 54 54 53 53 52 51 50 49 48
36 37 38 39 40 41 41 41 38 37 36 34 35 36 36 38 40 41 42 44 44 44 45 45 43 42 42 41 40 42 42 42 44 47 51 54 57 57 55 54 56 56 55 55 55 55 55 54 54 52 51 50
34 35 37 38 40 42 44 45 45 43 42 38 37 37 37 38 38 39 41 43 44 45 46 46 45 44 44 44 43 43 45 46 47 47 48 51 55 57 57 57 57 57 58 57 57 57 57 57 56 55 54 52
34 35 37 38 39 42 43 45 46 44 43 41 40 39 38 39 38 38 39 40 41 43 45 46 47 46 47 47 46 47 48 49 50 51 50 50 54 56 58 59 60 60 60 60 59 59 59 59 58 58 57 55
37 38 39 39 39 41 42 43 44 43 40 40 40 39 39 39 39 38 37 37 37 39 41 43 46 48 50 50 49 50 52 52 52 53 52 51 53 57 60 61 62 63 63 63 63 63 63 62 61 60 59 58
38 40 41 41 40 40 42 43 43 42 39 39 40 39 38 38 38 38 37 35 34 35 36 37 40 44 47 48 49 49 52 54 54 54 53 50 51 56 62 64 65 66 67 67 66 66 66 66 65 64 63 62
38 40 42 43 42 41 41 42 43 41 39 40 41 40 38 38 37 38 38 37 36 36 37 37 36 35 37 39 40 42 46 50 52 52 51 48 49 52 59 65 67 69 70 70 71 71 71 70 69 68 66 65
41 41 42 43 43 42 41 40 41 41 40 41 42 41 40 39 39 40 39 39 39 40 40 40 39 35 34 33 33 34 37 41 43 45 46 45 47 48 54 62 67 70 71 73 74 74 74 74 73 71 70 68
41 43 43 43 43 42 40 38 39 40 41 43 43 42 42 41 42 42 42 41 41 42 41 41 41 40 38 37 35 33 33 33 35 38 41 42 44 46 51 58 64 68 71 73 75 75 75 75 73 72 71 70
39 41 41 43 43 42 38 37 40 41 41 43 43 42 42 44 45 46 45 43 42 41 41 42 41 41 41 40 39 36 34 33 32 34 37 40 42 44 49 56 60 65 70 73 74 74 73 73 73 73 71 69
35 37 39 40 41 40 39 39 42 44 43 44 43 41 42 45 48 50 49 46 43 41 40 41 41 41 40 40 40 38 37 35 34 34 35 38 41 44 49 54 58 62 67 70 70 69 68 68 70 71 69 67
32 34 36 38 39 39 39 40 42 45 45 44 42 41 43 47 49 50 50 47 46 43 41 41 41 41 40 39 39 38 38 38 37 37 37 38 40 43 46 50 53 57 60 64 65 65 64 65 67 67 65 63
32 33 34 36 37 38 39 40 41 43 44 43 41 42 44 46 48 50 51 50 48 47 45 42 41 41 40 40 40 40 40 40 39 38 39 39 40 41 44 47 50 52 55 57 60 61 62 63 63 64 62 60
32 34 35 36 37 38 39 40 41 40 40 39 38 41 42 42 43 46 48 49 48 48 47 45 44 43 42 41 42 42 42 42 41 41 40 40 40 41 43 45 48 50 52 54 56 58 60 61 61 61 59 57
32 33 34 35 37 38 39 40 40 39 38 39 39 40 41 42 43 44 45 46 47 48 48 47 47 47 47 47 46 46 45 44 43 42 41 41 41 41 42 44 46 48 51 52 53 55 58 59 60 59 56 54
32 33 34 35 36 37 39 41 41 41 40 41 42 42 42 43 42 43 44 44 44 46 48 50 50 50 51 52 51 51 50 49 46 44 42 42 42 42 43 43 44 46 48 50 50 52 54 55 55 54 52 51
32 33 34 35 37 37 38 41 41 42 41 42 46 46 45 45 44 43 43 42 40 40 44 48 51 52 52 53 53 53 53 52 51 48 45 43 43 43 44 45 45 45 46 47 48 49 51 51 50 50 49 49
34 33 34 35 37 38 38 40 41 44 43 43 47 48 47 48 47 47 45 44 43 40 40 42 45 47 49 50 50 50 52 53 53 52 49 47 46 45 45 45 46 47 47 47 47 48 49 49 49 48 48 48
36 36 35 35 37 38 38 40 42 44 45 45 46 48 49 48 46 45 44 44 43 41 40 39 41 43 44 45 45 45 46 48 50 51 51 50 49 48 47 46 46 47 48 48 49 49 49 49 48 48 47 48
38 38 37 37 38 38 38 40 41 44 45 45 45 47 50 49 45 44 44 44 42 41 40 39 40 42 43 43 42 42 42 43 45 47 48 49 50 50 50 49 48 48 48 49 49 49 49 49 49 48 48 48
38 38 38 39 39 39 39 40 41 43 44 45 46 47 48 49 48 46 47 45 43 42 42 40 39 40 42 43 42 42 42 43 44 45 46 47 48 50 51 51 51 51 50 50 50 50 50 49 49 49 49 49
39 39 39 40 40 41 41 41 41 43 44 45 47 48 48 49 50 49 48 47 44 44 44 43 42 42 43 45 46 47 47 46 47 47 47 47 47 48 49 51 52 52 52 52 52 52 51 50 49 49 49 49
41 41 41 42 42 42 42 42 43 43 44 45 46 47 48 48 49 49 50 49 46 45 45 45 46 46 47 49 50 51 50 49 49 51 51 51 50 49 49 50 50 51 51 51 52 52 51 51 50 50 49 49
44 43 43 43 44 43 43 44 44 45 45 45 45 46 46 47 48 49 50 50 48 48 49 49 49 49 49 50 52 53 52 51 52 52 53 53 52 52 51 51 51 50 50 50 50 51 51 51 51 51 50 50
47 47 46 46 46 46 45 45 46 47 48 47 46 46 46 47 48 50 50 50 50 52 54 54 54 54 52 50 52 53 53 52 53 53 53 54 54 53 53 54 53 52 51 51 51 51 52 52 51 51 51 51
51 50 50 50 50 49 48 48 49 50 51 49 48 47 47 47 49 50 51 51 51 53 56 56 57 59 59 56 54 53 55 55 55 55 55 55 55 54 54 54 54 52 52 52 53 53 53 53 52 52 52 52
55 54 54 54 54 53 52 52 52 53 54 52 51 50 49 49 50 51 51 52 53 54 56 57 58 59 62 62 58 54 56 58 57 57 57 56 56 55 55 55 54 53 52 53 54 54 54 53 53 53 52 52
58 58 58 58 58 57 56 56 55 56 57 56 55 54 53 52 52 53 52 53 54 55 56 57 58 59 60 62 62 60 60 61 59 58 58 58 58 56 55 55 55 55 54 53 53 53 53 52 53 52 51 51
61 61 62 62 62 62 61 61 60 60 60 59 59 58 57 56 55 55 55 55 56 56 56 57 58 58 58 59 61 63 63 64 63 61 61 60 59 57 56 56 55 55 54 53 53 53 53 52 51 50 50 51
63 64 64 65 65 65 65 65 64 64 64 63 62 62 61 60 59 58 58 57 58 58 58 59 59 59 59 60 61 62 63 64 64 64 64 62 60 60 59 57 55 54 54 54 54 54 53 53 52 51 51 52
64 64 65 66 66 67 68 68 68 68 68 67 66 66 65 64 63 62 61 60 60 60 60 61 61 61 61 61 61 62 63 64 64 63 64 64 64 64 62 59 56 54 55 55 54 54 54 55 54 52 53 52
Wind_Direction
255 257 256 255 259 260 260 260 259 263 266 264 260 262 266 266 263 261 260 260 259 255 256 259 258 258 257 258 256 252 249 245 245 245 244 245 245 245 244 241 239 236 234 234 235 236 237 237 237 236 236 235
256 257 258 256 257 258 258 259 259 263 265 264 264 268 269 268 265 263 262 263 263 260 260 262 261 258 257 258 256 255 254 250 249 248 247 247 246 246 244 241 240 240 237 236 235 236 236 236 236 236 235 234
257 257 258 257 256 256 256 257 259 261 263 265 265 266 267 267 265 263 262 262 263 262 261 262 261 259 258 258 257 256 256 254 253 251 249 249 247 245 244 242 241 240 239 238 237 236 236 236 236 236 234 233
252 254 255 256 255 254 254 255 258 261 262 264 264 264 264 265 265 264 263 262 261 262 262 262 262 261 261 261 259 258 256 255 253 251 249 249 248 246 245 244 242 241 240 239 238 237 237 236 237 236 234 233
246 248 250 252 253 254 254 255 257 259 260 262 262 262 262 263 264 264 264 264 262 262 263 265 265 263 262 263 262 260 258 256 253 249 247 247 247 247 246 245 244 242 241 239 237 237 237 237 237 237 235 233
246 248 248 250 252 254 255 255 256 257 259 261 260 259 261 263 264 264 263 264 263 262 263 267 270 266 261 262 263 262 259 257 253 247 245 246 248 249 247 244 243 243 243 241 238 238 237 237 238 237 235 233
253 251 250 250 252 254 255 256 256 256 257 260 261 260 260 262 263 263 263 263 262 262 264 268 270 265 260 261 264 261 256 253 250 245 244 244 247 251 250 246 243 242 241 240 239 239 238 237 236 235 234 233
258 258 257 255 254 254 255 257 258 257 258 259 262 262 261 261 261 262 262 263 263 263 264 265 265 264 263 266 268 266 260 253 249 245 245 245 245 249 252 250 246 243 240 239 239 238 237 236 236 235 234 232
257 258 260 260 258 257 258 260 261 261 261 262 263 264 265 264 262 260 259 261 263 263 262 263 264 265 266 268 269 271 269 262 256 249 248 248 247 248 252 252 249 246 242 240 239 239 238 237 236 237 235 233
258 258 259 261 260 259 257 259 261 259 261 263 265 267 268 270 269 265 260 258 261 263 262 262 264 265 267 269 270 271 272 271 268 261 254 252 250 248 250 251 251 249 245 241 240 240 240 239 238 238 235 233
261 260 260 261 261 258 253 255 255 254 258 260 262 266 267 268 269 268 266 262 263 263 261 263 265 267 268 269 270 271 272 273 274 271 265 258 253 249 247 248 249 248 245 243 242 242 242 242 241 239 236 233
261 261 260 260 261 259 253 254 253 252 255 255 258 263 262 263 264 266 268 267 267 264 262 263 265 267 268 269 270 271 273 274 273 272 271 266 259 253 249 247 246 245 244 244 243 243 243 243 242 241 238 236
261 260 259 258 259 259 256 255 256 257 255 255 261 265 263 263 263 264 266 266 266 265 264 264 264 264 267 269 270 272 275 276 274 272 271 269 264 258 253 250 247 245 245 245 245 244 244 243 243 243 241 238
265 262 260 258 258 259 258 257 260 263 260 257 262 264 261 260 260 261 263 264 264 263 263 262 261 263 265 268 270 271 273 274 274 272 270 268 265 260 255 252 249 248 246 245 245 244 243 242 243 243 242 240
267 266 263 261 259 258 259 259 259 261 260 257 259 258 257 256 257 258 261 263 263 262 263 263 262 262 264 265 266 267 267 267 267 268 268 267 265 261 257 252 249 247 246 245 245 243 241 240 240 240 240 239
266 265 264 262 261 258 258 259 259 259 260 261 260 256 256 258 259 260 261 263 264 263 263 264 264 264 263 263 264 264 263 263 263 263 262 261 261 260 258 254 250 246 244 244 243 242 239 237 236 236 236 236
265 263 262 261 260 258 257 257 258 258 259 263 263 261 262 264 264 263 263 265 266 266 263 263 264 265 265 265 265 264 263 263 263 263 261 259 258 257 256 255 252 249 246 244 243 242 240 237 236 235 236 238
266 263 260 259 258 256 255 255 256 255 255 258 262 265 268 268 268 267 267 268 270 270 267 264 263 265 266 266 266 265 264 264 264 264 263 261 260 258 256 254 252 251 250 248 247 246 244 242 242 241 241 243
267 264 261 259 258 256 254 253 254 254 255 256 259 265 268 268 269 269 269 271 272 272 270 268 266 266 267 267 268 267 266 265 265 265 265 263 262 260 259 257 254 252 251 250 250 250 249 248 248 247 246 246
268 267 264 261 259 258 256 254 252 253 255 255 257 260 264 266 267 267 268 270 270 270 271 271 268 266 266 267 268 268 268 268 268 267 266 265 263 262 261 259 257 255 254 253 252 252 251 250 250 249 248 247
269 269 267 264 262 260 258 256 255 253 253 253 252 254 258 261 262 264 267 267 267 269 270 271 268 264 263 264 266 267 267 268 267 267 267 266 264 263 261 260 259 258 258 256 255 255 254 253 252 251 250 248
268 268 267 266 264 263 262 260 258 256 255 254 253 253 254 256 257 259 261 263 264 268 268 267 266 264 263 264 264 265 266 266 265 265 265 264 263 263 262 261 260 259 260 259 258 258 257 257 255 254 253 251
268 267 266 266 265 264 263 262 261 259 258 256 256 256 255 256 256 255 255 255 256 261 264 262 261 262 262 262 263 263 264 265 265 264 263 261 260 261 261 261 261 261 261 261 260 260 260 259 258 256 255 255
267 267 266 265 266 265 264 263 262 261 260 258 257 257 256 255 256 255 254 253 250 251 255 256 256 258 260 261 261 261 261 263 263 263 263 262 260 260 260 260 260 260 260 261 261 261 260 260 259 257 257 256
266 266 265 264 264 264 263 263 262 261 259 258 258 258 257 256 256 255 254 254 250 247 249 252 252 254 257 258 259 259 258 260 261 261 263 263 262 262 261 260 260 259 259 260 260 260 259 259 259 258 258 257
265 264 264 263 262 262 262 261 261 261 260 258 257 257 257 257 256 256 254 254 252 249 249 252 252 250 252 254 257 260 259 258 259 260 262 262 262 262 261 261 261 260 260 259 258 258 257 258 258 258 257 257
264 264 263 263 263 262 261 260 260 260 260 260 258 256 255 255 255 255 255 254 253 252 251 252 252 251 250 251 253 257 259 258 258 258 259 260 260 260 260 261 262 261 260 259 258 257 257 257 257 256 256 256
263 263 263 263 263 262 261 260 259 259 260 259 259 258 257 256 255 255 255 254 253 254 253 253 253 252 253 254 254 253 255 257 259 259 258 258 259 258 259 259 260 260 259 258 258 258 257 256 256 256 256 255
263 263 262 262 262 262 262 261 260 259 259 258 258 258 257 256 256 256 256 255 255 254 254 253 253 253 254 255 256 255 255 256 259 261 260 259 258 258 258 257 257 258 258 258 257 257 258 258 257 257 255 253
262 262 262 262 262 261 261 261 260 259 258 257 257 257 257 256 256 256 256 256 256 256 255 255 254 253 252 252 254 255 256 255 257 260 262 262 261 258 257 256 255 256 257 256 256 256 257 257 256 256 255 254
261 261 260 260 260 260 260 260 259 259 258 257 256 255 256 256 256 255 255 255 256 256 256 256 256 254 253 252 252 253 254 254 255 255 257 260 261 261 260 256 254 255 256 256 256 256 256 256 256 256 256 256